Aurora, OR

7:31 PM PST on February 19, 2017 (GMT -0800)
Aurora State

Weather History for KUAO - July, 2013

Change the Weather History Date:

Thursday, July 11, 2013

  Actual Average Record
Temperature  
Mean Temperature 64 °F -  
Max Temperature 78 °F - 93 °F (2007)
Min Temperature 52 °F - 50 °F (2008)
Degree Days  
Heating Degree Days 0    
Month to date heating degree days 1  
Since 1 June heating degree days 81  
Since 1 July heating degree days 1  
Cooling Degree Days 0    
Month to date cooling degree days 48  
Year to date cooling degree days 117  
Since 1 June cooling degree days 102  
Growing Degree Days 14 (Base 50)    
Moisture  
Dew Point 46 °F    
Average Humidity 56    
Maximum Humidity 77    
Minimum Humidity 35    
Precipitation  
Precipitation 0.00 in - 0.04 in (1963)
Month to date precipitation 0.00  
Year to date precipitation 12.96  
Sea Level Pressure  
Sea Level Pressure 30.05 in    
Wind  
Wind Speed 7 mph (NNE)    
Max Wind Speed 15 mph    
Max Gust Speed 21 mph    
Visibility 10 miles    
Events      
T = Trace of Precipitation, MM = Missing Value Source: NWS Daily Summary

Daily Weather History Graph

Daily Weather History Graph

Search for Another Location

Airport or City:

Trip Planner

Search our weather history database for the weather conditions in past years. The results will help you decide how hot, cold, wet, or windy it might be!

Date:

Astronomy

Jul. 11, 2013 Rise Set
Actual Time 5:34 AM PDT 8:58 PM PDT
Civil Twilight 4:58 AM PDT 9:34 PM PDT
Nautical Twilight 4:10 AM PDT 10:22 PM PDT
Astronomical Twilight 3:08 AM PDT 11:22 PM PDT
Moon 9:10 AM PDT (7/11) 10:28 PM PDT (7/11)
Length of Visible Light 16h 36m
Length of Day
15h 23m
Waxing Crescent, 11% of the Moon is Illuminated
Jul 11
Waxing Crescent
Jul 15
First Quarter
Jul 22
Full
Jul 29
Last Quarter
Aug 6
New

Hourly Weather History & Observations

Time (PDT) Temp. Dew Point Humidity Pressure Visibility Wind Dir Wind Speed Gust Speed Precip Events Conditions
12:53 AM 55.0 °F 46.0 °F 72% 30.04 in 10.0 mi North 6.9 mph - N/A   Clear
1:53 AM 54.0 °F 46.0 °F 75% 30.05 in 10.0 mi North 6.9 mph - N/A   Clear
2:53 AM 53.1 °F 45.0 °F 74% 30.06 in 10.0 mi North 8.1 mph - N/A   Clear
3:53 AM 53.1 °F 46.0 °F 77% 30.06 in 10.0 mi NE 4.6 mph - N/A   Clear
4:53 AM 53.1 °F 46.0 °F 77% 30.08 in 10.0 mi ENE 5.8 mph - N/A   Clear
5:53 AM 53.1 °F 46.0 °F 77% 30.09 in 10.0 mi ENE 4.6 mph - N/A   Clear
6:53 AM 54.0 °F 46.9 °F 77% 30.10 in 10.0 mi ENE 3.5 mph - N/A   Scattered Clouds
7:18 AM 55.4 °F 46.4 °F 72% 30.11 in 10.0 mi ENE 3.5 mph - N/A   Mostly Cloudy
7:43 AM 57.2 °F 46.4 °F 67% 30.11 in 10.0 mi ENE 4.6 mph - N/A   Scattered Clouds
7:53 AM 57.9 °F 46.9 °F 67% 30.11 in 10.0 mi ENE 4.6 mph - N/A   Partly Cloudy
8:21 AM 59.0 °F 46.4 °F 63% 30.11 in 10.0 mi NE 8.1 mph - N/A   Mostly Cloudy
8:34 AM 60.8 °F 46.4 °F 59% 30.11 in 10.0 mi NE 8.1 mph 16.1 mph N/A   Overcast
8:53 AM 59.0 °F 46.0 °F 62% 30.11 in 10.0 mi North 6.9 mph - N/A   Mostly Cloudy
9:53 AM 62.1 °F 46.0 °F 56% 30.10 in 10.0 mi East 6.9 mph - N/A   Scattered Clouds
10:53 AM 63.0 °F 46.0 °F 54% 30.09 in 10.0 mi Variable 5.8 mph - N/A   Partly Cloudy
11:53 AM 66.0 °F 46.9 °F 50% 30.08 in 10.0 mi Variable 6.9 mph - N/A   Clear
12:53 PM 69.1 °F 46.0 °F 44% 30.06 in 10.0 mi Variable 6.9 mph - N/A   Clear
1:53 PM 71.1 °F 45.0 °F 39% 30.05 in 10.0 mi ENE 6.9 mph - N/A   Clear
2:53 PM 73.0 °F 44.1 °F 35% 30.03 in 10.0 mi Variable 3.5 mph - N/A   Clear
3:53 PM 75.9 °F 46.0 °F 35% 30.00 in 10.0 mi North 4.6 mph - N/A   Clear
4:53 PM 75.9 °F 46.9 °F 36% 29.98 in 10.0 mi Variable 3.5 mph - N/A   Clear
5:53 PM 75.9 °F 46.9 °F 36% 29.97 in 10.0 mi Variable 5.8 mph - N/A   Clear
6:53 PM 75.0 °F 46.9 °F 37% 29.96 in 10.0 mi NNE 5.8 mph - N/A   Clear
7:53 PM 72.0 °F 48.0 °F 43% 29.96 in 10.0 mi NNE 10.4 mph - N/A   Clear
8:53 PM 66.9 °F 48.9 °F 52% 29.97 in 10.0 mi North 8.1 mph - N/A   Clear
9:53 PM 63.0 °F 48.0 °F 58% 29.99 in 10.0 mi North 12.7 mph - N/A   Clear
10:53 PM 60.1 °F 46.9 °F 62% 30.00 in 10.0 mi North 9.2 mph - N/A   Clear
11:53 PM 57.0 °F 46.9 °F 69% 30.01 in 10.0 mi North 9.2 mph - N/A   Clear